Torna al catalogo

METEOR 2-17 DEB

AttivoPO
NORAD 29302·DEBRIS·🇷🇺 Russia

Lanciato Jan 30, 1988 da Plesetsk Cosmodrome

Loading…

Prossimi Passaggi (prossime 24 ore)

TLE

AggiornatoSource: Space-Track

Epoca: Sep 12, 2026, 00:18 UTC

1 29302U 88005R   26255.01254772  .00001242  00000-0  69757-3 0  9991
2 29302  82.5565 141.6226 0016061   3.6502 356.4786 14.09788451633997

Traccia METEOR 2-17 DEB in tempo reale con AllMySat

Download on the App Store